{"data":{"norad_id":49203,"intl_designator":"2021-083T","name":"ONEWEB-0337","alt_names":[],"object_type":"PAYLOAD","status":"ACTIVE","operator":null,"country":"UK","launch_date":"2021-09-14","launch_site_code":"TYMSC","launch_vehicle":null,"mission":null,"orbit_class":"UNKNOWN","rcs_meters":null,"size_class":null,"mass_kg":null,"dimensions":null,"purposes":["comms"],"wikipedia_slug":null,"has_3d_model":false,"image_url":null,"decayed_at":null,"tle_current":{"epoch":"2026-09-19T21:09:01.608768Z","epoch_age_seconds":79247,"freshness":"FRESH","line1":"1 49203U 21083T   26262.88126862  .00000184  00000+0  47018-3 0  9996","line2":"2 49203  87.8916 301.3896 0001781  99.2455 260.8875 13.13468614243349","mean_motion":13.13468614,"eccentricity":0.0001781,"inclination_deg":87.8916,"raan_deg":301.3896,"arg_perigee_deg":99.2455,"mean_anomaly_deg":260.8875,"bstar":0.00047018,"rev_number":24334,"period_min":109.63337720074,"perigee_km":1208.4193314751,"apogee_km":1211.1221442114,"semimajor_km":7587.9077378433,"source":"CELESTRAK","updated_at":"2026-09-20T09:00:44.663922Z"}}}